DW7854 Weather Reports


time (UTC)temp
F
wind
direction
speed
knots
gust
knots
rain 1hr
in
rain 24hr
in
rain mn
in
humidity
%
barometer
mb
20260901115306 75 0 0.0 0.0 0.00 0.00 0.00 88 1016.2
20260901114513 74 135 0.0 0.0 0.00 0.00 0.00 88 1015.8
20260901114402 75 0 0.0 0.0 0.00 0.00 0.00 88 1016.0
20260901113502 75 0 0.0 0.0 0.00 0.00 0.00 87 1015.9
20260901113003 74 144 0.0 0.0 0.00 0.00 0.00 87 1015.6
20260901112602 75 0 0.0 0.0 0.00 0.00 0.00 87 1015.9
20260901111702 75 0 0.0 0.0 0.00 0.00 0.00 87 1015.9
20260901111504 75 144 0.0 0.0 0.00 0.00 0.00 87 1015.6
20260901110802 75 0 0.0 0.0 0.00 0.00 0.00 87 1016.0
20260901110109 75 144 0.0 0.0 0.00 0.00 0.00 87 1015.6
20260901105902 75 0 0.0 0.0 0.00 0.00 0.00 87 1015.9
20260901104611 75 144 0.0 0.0 0.00 0.00 0.00 86 1015.5
20260901104102 76 0 0.0 0.0 0.00 0.00 0.00 86 1015.7
20260901103007 76 144 0.0 0.0 0.00 0.00 0.00 85 1015.5
20260901102306 76 0 0.0 0.0 0.00 0.00 0.00 85 1015.7
20260901101507 76 144 0.0 0.0 0.00 0.00 0.00 84 1015.3
20260901101402 76 0 0.0 0.0 0.00 0.00 0.00 85 1015.6
20260901100009 76 144 0.0 0.0 0.00 0.00 0.00 85 1015.3
20260901094702 76 0 0.0 0.0 0.00 0.00 0.00 84 1015.7
20260901094604 76 144 0.0 0.0 0.00 0.00 0.00 84 1015.4
20260901093802 76 0 0.0 0.0 0.00 0.00 0.00 84 1015.7
20260901093004 76 144 0.0 0.0 0.00 0.00 0.00 84 1015.4
20260901092902 77 0 0.0 0.0 0.00 0.00 0.00 84 1015.6
20260901091509 76 144 0.0 0.0 0.00 0.00 0.00 84 1015.4
20260901091102 77 0 0.0 0.0 0.00 0.00 0.00 83 1015.7
20260901090202 76 0 0.0 0.0 0.00 0.00 0.00 84 1015.6
20260901090008 76 144 0.0 0.0 0.00 0.00 0.00 84 1015.3
20260901085305 76 0 0.0 0.0 0.00 0.00 0.00 85 1015.5
20260901084507 76 144 0.0 0.0 0.00 0.00 0.00 85 1015.3
20260901084402 76 0 0.0 0.0 0.00 0.00 0.00 85 1015.6
20260901083502 76 0 0.0 0.0 0.00 0.00 0.00 84 1015.6
20260901083012 76 144 0.0 0.0 0.00 0.00 0.00 84 1015.4
20260901082602 77 0 0.0 0.0 0.00 0.00 0.00 84 1015.8
20260901081702 77 144 0.9 1.7 0.00 0.00 0.00 84 1015.7
20260901081603 76 144 0.0 1.7 0.00 0.00 0.00 84 1015.4
20260901080004 76 144 0.9 1.7 0.00 0.00 0.00 84 1015.3
20260901075002 77 144 0.9 1.7 0.00 0.00 0.00 83 1015.6
20260901074502 77 144 0.0 1.7 0.00 0.00 0.00 83 1015.2
20260901074102 77 144 0.9 1.7 0.00 0.00 0.00 82 1015.6
20260901073202 78 144 0.0 0.9 0.00 0.00 0.00 82 1015.7
20260901073004 77 144 0.0 1.7 0.00 0.00 0.00 82 1015.3
20260901072308 78 143 0.9 1.7 0.00 0.00 0.00 81 1015.6
20260901071606 77 144 0.0 1.7 0.00 0.00 0.00 81 1015.3
20260901071402 78 144 0.9 1.7 0.00 0.00 0.00 81 1015.6
20260901070502 78 144 0.9 1.7 0.00 0.00 0.00 80 1015.4
20260901070007 78 144 0.0 1.7 0.00 0.00 0.00 80 1015.2
20260901065602 78 144 0.0 0.9 0.00 0.00 0.00 80 1015.5
20260901064702 79 0 0.0 0.0 0.00 0.00 0.00 79 1015.4
20260901064509 78 144 0.0 0.0 0.00 0.00 0.00 79 1015.0
20260901063802 79 0 0.0 0.0 0.00 0.00 0.00 79 1015.4
20260901063006 79 144 0.0 0.0 0.00 0.00 0.00 78 1015.0
20260901062902 80 0 0.0 0.0 0.00 0.00 0.00 78 1015.4
20260901062002 80 0 0.0 0.0 0.00 0.00 0.00 77 1015.3
20260901061509 79 144 0.0 0.0 0.00 0.00 0.00 77 1015.0
20260901061102 80 0 0.0 0.0 0.00 0.00 0.00 77 1015.2
20260901060202 80 144 0.0 0.9 0.00 0.00 0.00 76 1015.3
20260901060004 80 144 0.0 0.9 0.00 0.00 0.00 76 1014.9
20260901055306 81 144 0.0 0.9 0.00 0.00 0.00 75 1015.2
20260901054503 81 144 0.0 0.9 0.00 0.00 0.00 75 1014.8
20260901054402 81 144 0.0 0.9 0.00 0.00 0.00 74 1015.0
20260901053502 81 144 0.0 0.9 0.00 0.00 0.00 74 1014.9
20260901053004 81 145 0.0 0.9 0.00 0.00 0.00 73 1014.6
20260901051702 82 0 0.0 0.0 0.00 0.00 0.00 72 1014.8
20260901051505 81 144 0.0 0.0 0.00 0.00 0.00 72 1014.5
20260901050802 82 142 0.0 0.9 0.00 0.00 0.00 72 1014.8
20260901050009 82 144 0.0 1.7 0.00 0.00 0.00 71 1014.4
20260901045902 82 130 0.0 1.7 0.00 0.00 0.00 71 1014.7
20260901045002 82 122 0.0 0.9 0.00 0.00 0.00 71 1014.8
20260901044502 82 123 0.0 0.9 0.00 0.00 0.00 71 1014.4
20260901044102 83 123 0.0 1.7 0.00 0.00 0.00 70 1014.8
20260901043007 82 123 0.0 0.9 0.00 0.00 0.00 70 1014.4
20260901042305 83 127 0.0 1.7 0.00 0.00 0.00 70 1014.8
20260901041508 83 123 0.0 1.7 0.00 0.00 0.00 69 1014.5
20260901041402 83 126 0.0 1.7 0.00 0.00 0.00 69 1014.8
20260901040502 83 127 0.0 1.7 0.00 0.00 0.00 69 1014.8
20260901040113 83 121 0.0 1.7 0.00 0.00 0.00 68 1014.4
20260901034702 84 112 0.0 1.7 0.00 0.00 0.00 68 1014.7
20260901034504 83 113 0.0 1.7 0.00 0.00 0.00 68 1014.3
20260901033802 84 113 0.0 1.7 0.00 0.00 0.00 67 1014.6
20260901033107 83 113 0.0 0.9 0.00 0.00 0.00 67 1014.3
20260901032902 84 113 0.0 0.9 0.00 0.00 0.00 67 1014.6
20260901032002 84 147 0.0 0.9 0.00 0.00 0.00 66 1014.6
20260901031603 84 111 0.0 0.9 0.00 0.00 0.00 65 1014.3
20260901031102 85 110 0.0 0.9 0.00 0.00 0.00 65 1014.5
20260901030202 85 112 0.0 1.7 0.00 0.00 0.00 64 1014.3
20260901030104 84 111 0.0 1.7 0.00 0.00 0.00 64 1014.0
20260901024605 85 117 0.0 2.6 0.00 0.00 0.00 64 1013.7
20260901024402 85 116 0.0 2.6 0.00 0.00 0.00 63 1014.0
20260901023502 85 144 0.0 2.6 0.00 0.00 0.00 63 1014.0
20260901023102 84 159 0.0 2.6 0.00 0.00 0.00 63 1013.7
20260901022602 85 143 0.9 2.6 0.00 0.00 0.00 63 1013.9
20260901021702 85 145 0.0 2.6 0.00 0.00 0.00 62 1013.8
20260901021603 84 109 0.0 2.6 0.00 0.00 0.00 62 1013.5
20260901020802 85 163 0.0 0.9 0.00 0.00 0.00 61 1013.7
20260901020105 85 164 0.0 0.0 0.00 0.00 0.00 61 1013.4
20260901015902 85 0 0.0 0.0 0.00 0.00 0.00 61 1013.6
20260901015002 86 0 0.0 0.0 0.00 0.00 0.00 60 1013.6
20260901014603 86 164 0.0 0.0 0.00 0.00 0.00 60 1013.2
20260901014102 87 0 0.0 0.0 0.00 0.00 0.00 59 1013.4
20260901013202 87 0 0.0 0.0 0.00 0.00 0.00 57 1013.4
20260901013107 87 164 0.0 0.0 0.00 0.00 0.00 57 1013.1
20260901012306 88 164 0.0 0.9 0.00 0.00 0.00 55 1013.4
20260901011503 88 164 0.0 0.9 0.00 0.00 0.00 54 1013.1
20260901011402 89 163 0.0 0.9 0.00 0.00 0.00 54 1013.3
20260901010502 90 163 0.0 0.9 0.00 0.00 0.00 53 1013.3
20260901010108 90 164 0.0 0.9 0.00 0.00 0.00 52 1012.9
20260901005602 91 163 0.0 0.9 0.00 0.00 0.00 51 1013.2
20260901004702 92 163 0.0 0.9 0.00 0.00 0.00 50 1013.2
20260901004504 92 164 0.0 0.0 0.00 0.00 0.00 50 1012.8
20260901003802 93 164 0.0 1.7 0.00 0.00 0.00 49 1013.1
20260901003106 93 164 0.0 1.7 0.00 0.00 0.00 47 1012.8
20260901002902 93 164 0.0 1.7 0.00 0.00 0.00 47 1013.0
20260901001604 93 164 0.0 2.6 0.00 0.00 0.00 46 1012.6
20260901001102 94 163 1.7 3.5 0.00 0.00 0.00 46 1012.9
20260901000203 94 157 1.7 4.3 0.00 0.00 0.00 45 1012.9
20260901000007 94 164 1.7 4.3 0.00 0.00 0.00 45 1012.6
20260831235306 95 152 2.6 4.3 0.00 0.00 0.00 44 1012.9
20260831234503 95 155 2.6 5.2 0.00 0.00 0.00 43 1012.6
20260831234402 95 158 3.5 5.2 0.00 0.00 0.00 43 1012.9
20260831233502 96 168 3.5 6.1 0.00 0.00 0.00 41 1013.0
20260831233107 96 132 3.5 6.1 0.00 0.00 0.00 41 1012.8
20260831232602 97 138 3.5 6.1 0.00 0.00 0.00 40 1012.9
20260831231702 98 154 2.6 5.2 0.00 0.00 0.00 39 1013.0
20260831231502 97 95 1.7 5.2 0.00 0.00 0.00 39 1012.6
20260831230802 98 149 3.5 7.8 0.00 0.00 0.00 37 1012.9
20260831230002 98 135 4.3 7.8 0.00 0.00 0.00 35 1012.6
20260831224603 99 158 4.3 7.0 0.00 0.00 0.00 34 1012.7
20260831223202 100 142 4.3 7.8 0.00 0.00 0.00 32 1013.2
20260831223004 99 150 4.3 8.7 0.00 0.00 0.00 30 1012.8
20260831222305 100 153 4.3 8.7 0.00 0.00 0.00 31 1013.2
20260831221504 100 178 3.5 7.0 0.00 0.00 0.00 32 1012.9
20260831221402 100 138 3.5 7.0 0.00 0.00 0.00 32 1013.2
20260831220502 100 156 4.3 9.6 0.00 0.00 0.00 33 1013.2
20260831220105 100 116 4.3 9.6 0.00 0.00 0.00 36 1012.8
20260831214702 101 170 3.5 7.0 0.00 0.00 0.00 36 1013.3
20260831214503 101 170 2.6 6.1 0.00 0.00 0.00 36 1013.0
20260831213802 101 175 2.6 4.3 0.00 0.00 0.00 37 1013.3
20260831213002 100 143 2.6 7.0 0.00 0.00 0.00 36 1013.1
20260831212902 100 146 2.6 7.0 0.00 0.00 0.00 37 1013.5
20260831212002 100 143 3.5 7.8 0.00 0.00 0.00 37 1013.5
20260831211603 100 77 2.6 9.6 0.00 0.00 0.00 37 1013.2
20260831211102 101 153 3.5 7.8 0.00 0.00 0.00 37 1013.7
20260831210202 101 158 5.2 8.7 0.00 0.00 0.00 39 1013.8
20260831210106 100 167 3.5 8.7 0.00 0.00 0.00 39 1013.4
20260831205305 101 166 3.5 8.7 0.00 0.00 0.00 38 1013.8
20260831204509 100 148 3.5 7.8 0.00 0.00 0.00 39 1013.7
20260831204402 101 159 4.3 7.8 0.00 0.00 0.00 39 1014.0
20260831203502 101 170 3.5 7.0 0.00 0.00 0.00 39 1014.0
20260831203016 100 168 2.6 8.7 0.00 0.00 0.00 39 1013.7
20260831202602 100 170 4.3 8.7 0.00 0.00 0.00 39 1014.2
20260831201702 100 157 4.3 11.3 0.00 0.00 0.00 40 1014.2
20260831201505 99 115 6.1 11.3 0.00 0.00 0.00 39 1013.9
20260831200802 100 177 3.5 7.8 0.00 0.00 0.00 40 1014.3
20260831200004 100 155 3.5 7.0 0.00 0.00 0.00 41 1014.0
20260831195902 100 134 4.3 7.8 0.00 0.00 0.00 40 1014.4
20260831195002 101 166 4.3 8.7 0.00 0.00 0.00 40 1014.5
20260831194511 101 160 4.3 8.7 0.00 0.00 0.00 40 1014.2
20260831194102 101 164 4.3 7.0 0.00 0.00 0.00 40 1014.6
20260831193202 100 172 4.3 10.4 0.00 0.00 0.00 42 1014.6
20260831193006 99 165 4.3 12.2 0.00 0.00 0.00 42 1014.3
20260831192305 99 149 3.5 12.2 0.00 0.00 0.00 41 1014.7
20260831191604 99 107 3.5 7.8 0.00 0.00 0.00 42 1014.4
20260831191402 99 196 2.6 6.1 0.00 0.00 0.00 43 1014.8
20260831190502 100 330 1.7 5.2 0.00 0.00 0.00 42 1014.9
20260831190006 100 313 1.7 4.3 0.00 0.00 0.00 42 1014.6
20260831185602 100 153 3.5 7.0 0.00 0.00 0.00 43 1015.1
20260831184702 100 146 3.5 7.8 0.00 0.00 0.00 43 1015.3
20260831184605 99 145 4.3 7.8 0.00 0.00 0.00 43 1014.9
20260831183103 98 162 1.7 6.1 0.00 0.00 0.00 45 1015.1
20260831182902 98 104 2.6 6.1 0.00 0.00 0.00 45 1015.4
20260831182002 99 141 3.5 6.1 0.00 0.00 0.00 43 1015.5
20260831181504 98 170 2.6 6.1 0.00 0.00 0.00 44 1015.2
20260831181102 99 185 3.5 6.1 0.00 0.00 0.00 44 1015.7
20260831180202 99 187 2.6 7.0 0.00 0.00 0.00 45 1015.8
20260831180005 98 253 2.6 7.0 0.00 0.00 0.00 46 1015.5
20260831174605 98 93 2.6 6.1 0.00 0.00 0.00 45 1015.7
20260831174402 99 173 4.3 6.1 0.00 0.00 0.00 45 1016.1
20260831173502 98 169 2.6 7.8 0.00 0.00 0.00 46 1016.3
20260831173106 98 151 0.9 7.8 0.00 0.00 0.00 48 1016.1
20260831172602 98 165 3.5 7.8 0.00 0.00 0.00 47 1016.5
20260831171702 97 152 2.6 6.1 0.00 0.00 0.00 49 1016.6
20260831171505 96 165 3.5 6.1 0.00 0.00 0.00 50 1016.3
20260831170107 96 167 4.3 7.0 0.00 0.00 0.00 50 1016.4
20260831165902 96 163 3.5 7.0 0.00 0.00 0.00 50 1016.8
20260831165002 96 165 3.5 8.7 0.00 0.00 0.00 52 1016.8
20260831164613 95 166 2.6 7.0 0.00 0.00 0.00 52 1016.5
20260831164101 95 135 3.5 7.8 0.00 0.00 0.00 54 1016.9
20260831163202 94 169 3.5 7.8 0.00 0.00 0.00 52 1017.0
20260831163106 94 157 1.7 7.8 0.00 0.00 0.00 54 1016.7
20260831162305 94 163 3.5 7.0 0.00 0.00 0.00 54 1017.0
20260831161508 93 288 3.5 9.6 0.00 0.00 0.00 56 1016.8
20260831161401 94 169 4.3 8.7 0.00 0.00 0.00 56 1017.0
20260831160505 94 165 4.3 7.8 0.00 0.00 0.00 55 1017.0
20260831160012 94 168 3.5 7.0 0.00 0.00 0.00 56 1016.7
20260831155603 94 174 2.6 7.0 0.00 0.00 0.00 55 1017.0
20260831154702 93 177 1.7 6.1 0.00 0.00 0.00 58 1017.1
20260831154510 92 188 2.6 6.1 0.00 0.00 0.00 58 1016.6
20260831153801 92 154 1.7 4.3 0.00 0.00 0.00 59 1017.0
20260831153003 90 115 0.9 7.0 0.00 0.00 0.00 60 1016.6
20260831152901 91 154 2.6 7.0 0.00 0.00 0.00 60 1017.0
20260831152002 90 154 1.7 6.1 0.00 0.00 0.00 61 1017.0
20260831151504 89 181 0.9 5.2 0.00 0.00 0.00 63 1016.7
20260831151102 89 187 2.6 5.2 0.00 0.00 0.00 63 1017.0
20260831150107 88 300 1.7 5.2 0.00 0.00 0.00 63 1016.7
20260831145306 88 146 2.6 6.1 0.00 0.00 0.00 64 1017.1
20260831144612 87 158 3.5 6.1 0.00 0.00 0.00 64 1016.7
20260831143501 87 166 2.6 4.3 0.00 0.00 0.00 66 1016.9
20260831143003 86 184 1.7 4.3 0.00 0.00 0.00 66 1016.5
20260831142601 86 157 1.7 5.2 0.00 0.00 0.00 67 1016.9
20260831141701 86 177 2.6 4.3 0.00 0.00 0.00 68 1016.8
20260831141505 85 158 1.7 4.3 0.00 0.00 0.00 68 1016.5
20260831140802 85 168 2.6 4.3 0.00 0.00 0.00 69 1016.7
20260831140110 84 172 1.7 5.2 0.00 0.00 0.00 70 1016.3
20260831135901 84 179 2.6 5.2 0.00 0.00 0.00 70 1016.6
20260831134605 83 172 1.7 4.3 0.00 0.00 0.00 72 1016.4
20260831133201 81 167 1.7 4.3 0.00 0.00 0.00 75 1016.6
20260831133103 81 152 1.7 4.3 0.00 0.00 0.00 75 1016.3
20260831131605 78 142 0.9 1.7 0.00 0.00 0.00 79 1016.1
20260831131401 79 159 0.0 0.9 0.00 0.00 0.00 79 1016.3
20260831130501 78 169 0.9 2.6 0.00 0.00 0.00 79 1016.1
20260831130005 78 151 0.0 1.7 0.00 0.00 0.00 79 1015.8
20260831124503 77 106 0.0 0.9 0.00 0.00 0.00 79 1015.6
20260831123801 78 130 0.9 2.6 0.00 0.00 0.00 80 1015.8
20260831123107 77 130 0.0 0.9 0.00 0.00 0.00 79 1015.4
20260831122901 78 129 0.0 0.9 0.00 0.00 0.00 79 1015.7
20260831122001 78 130 0.0 1.7 0.00 0.00 0.00 79 1015.5
20260831121504 77 130 0.0 0.9 0.00 0.00 0.00 79 1015.3
20260831121101 78 130 0.0 1.7 0.00 0.00 0.00 79 1015.5
20260831120202 78 132 0.0 1.7 0.00 0.00 0.00 79 1015.4
20260831120108 77 130 0.0 1.7 0.00 0.00 0.00 79 1015.1